Flag for Norway Weather past 2 weeks in Ulsteinvik, Norway

Now
41 °F

Partly cloudy.


Feels Like: 33 °F
Forecast: 40 / 42 °F
Wind: 15 mph from South

Location: Alesund / Vigra

Current Time: Dec 18, 2014 at 4:00:11 AM

Latest Report: Dec 18, 2014 at 3:20 AM


Visibility: N/A

Pressure: 29.12 "Hg

Humidity: 81%

Dew point: 36 °F

Location of UlsteinvikLocation

Historic Weather in Ulsteinvik — Graph

°F

Ulsteinvik temperature yesterday

Maximum temperature yesterday: 41 °F (at 5:20 PM)
Minimum temperature yesterday: 36 °F (at 12:20 AM)
Average temperature yesterday: 38 °F

Past Weeks' High & Low Weather Summary

 TemperatureHumidityPressure
High52 °F (Dec 3, 9:50 PM)100% (Dec 15, 1:20 PM)30.07 "Hg (Dec 15, 1:20 PM)
Low32 °F (Dec 13, 5:20 PM)53% (Dec 6, 1:50 AM)28.65 "Hg (Dec 11, 6:50 AM)
Average41 °F76%29.31 "Hg
* Reported Dec 3 2:20 AM — Dec 18 2:50 AM, Ulsteinvik, Weather by CustomWeather, © 2014

Note: Actual official high and low records may vary slightly from our data, if they occured in-between our weather recording intervals... More about our weather records

Advertising

Ulsteinvik weather history for previous 24 hours

 ConditionsComfort  
Time TempWeatherWind HumidityBarometerVisibility
2:50 AM
Dec 18
43 °FPassing clouds.17 mph76%29.12 "HgN/A
2:20 AM43 °FPartly cloudy.15 mph76%29.12 "HgN/A
1:50 AM41 °FPartly cloudy.12 mph81%29.12 "HgN/A
1:20 AM43 °FPassing clouds.12 mph76%29.12 "HgN/A
12:50 AM43 °FPassing clouds.13 mph76%29.12 "HgN/A
12:20 AM43 °FPassing clouds.13 mph76%29.12 "HgN/A
11:50 PM
Dec 17
41 °FPassing clouds.10 mph81%29.12 "HgN/A
11:20 PM41 °FPartly cloudy.10 mph81%29.12 "HgN/A
10:50 PM41 °FPassing clouds.8 mph81%29.15 "HgN/A
10:20 PM39 °FLight rain. Mostly cloudy.13 mph87%29.15 "Hg4 mi
9:50 PM39 °FSprinkles. Partly cloudy.14 mph87%29.15 "HgN/A
9:20 PM41 °FSprinkles. Partly cloudy.18 mph81%29.12 "HgN/A
8:50 PM41 °FPassing clouds.13 mph81%29.12 "HgN/A
8:20 PM41 °FPassing clouds.15 mph76%29.12 "HgN/A
7:50 PM41 °FPassing clouds.14 mph81%29.12 "HgN/A
7:20 PM39 °FPartly cloudy.13 mph81%29.12 "HgN/A
6:50 PM39 °FPartly cloudy.17 mph81%29.12 "HgN/A
6:20 PM39 °FPassing clouds.16 mph75%29.09 "HgN/A
5:50 PM39 °FSprinkles. Passing clouds.20 mph75%29.09 "HgN/A
5:20 PM41 °FSprinkles. Passing clouds.18 mph70%29.12 "HgN/A
4:50 PM39 °FPassing clouds.17 mph65%29.15 "HgN/A
4:20 PM39 °FClear.18 mph65%29.15 "Hg10 mi
3:50 PM39 °FClear.18 mph65%29.15 "Hg10 mi
3:20 PM39 °FClear.17 mph61%29.18 "Hg10 mi
2:50 PM37 °FSunny.16 mph65%29.21 "Hg10 mi
2:20 PM37 °FSunny.20 mph70%29.21 "Hg10 mi
1:50 PM39 °FPartly sunny.17 mph61%29.21 "HgN/A
1:20 PM37 °FSunny.17 mph70%29.24 "Hg10 mi
12:50 PM37 °FSunny.16 mph65%29.24 "Hg10 mi
12:20 PM37 °FSunny.18 mph65%29.27 "Hg10 mi
11:50 AM37 °FSunny.17 mph65%29.27 "Hg10 mi
11:20 AM37 °FSunny.16 mph70%29.30 "Hg10 mi
10:50 AM37 °FSunny.15 mph70%29.30 "Hg10 mi
10:20 AM37 °FSunny.15 mph70%29.30 "Hg10 mi
9:50 AM37 °FClear.16 mph70%29.30 "Hg10 mi
9:20 AM37 °FClear.16 mph70%29.30 "Hg10 mi
8:50 AM37 °FClear.17 mph75%29.30 "Hg10 mi
8:20 AM37 °FClear.15 mph75%29.33 "Hg10 mi
7:50 AM36 °FClear.15 mph75%29.33 "Hg10 mi
7:20 AM37 °FPassing clouds.15 mph75%29.33 "HgN/A
6:50 AM36 °FClear.16 mph75%29.33 "Hg10 mi
6:20 AM37 °FClear.15 mph75%29.33 "Hg10 mi
5:50 AM37 °FPassing clouds.15 mph75%29.33 "HgN/A
5:20 AM37 °FPassing clouds.14 mph75%29.33 "HgN/A
4:50 AM37 °FPassing clouds.14 mph75%29.33 "HgN/A
4:20 AM37 °FMostly cloudy.13 mph75%29.36 "HgN/A
Weather by CustomWeather, © 2014

See weather overviewHow to use our weather pages